Location: *
(49.5667°N, 1.3667°W)
Time: 03:30:29
(UTC+00:00)

Cosmos 1452 Rocket - Pass Details

Date: 20 September 2019
Orbit: 767 x 774 km, 74.1° (Epoch: 17 October)

Event Time Altitude Azimuth Distance (km) Brightness Sun altitude
Exits shadow 21:19:01 47° 247° (WSW) 1,008 4.1 -29.0°
Maximum altitude 21:20:12 60° 297° (WNW) 879 3.9 -29.1°
Drops below altitude 10° 21:25:25 10° 18° (NNE) 2,320 6.3 -29.7°
Sets 21:27:51 0° 22° (NNE) 3,251 7.0 -30.0°
